Regional Weather Roundup
Issued by NWS

Home | Current Version | Previous Version | Graphics & Text | Print | Product List | Glossary On
Versions: 1 2 3 4 5 6 7 8 9 10 11 12 13 14 15 16 17 18 19 20 21 22 23 24 25 26 27 28 29 30 31 32 33 34 35 36 37 38 39 40 41 42 43 44 45 46 47 48 49 50
000
ASUS45 KSLC 030410
RWRUT

UTAH REGIONAL WEATHER ROUNDUP
NATIONAL WEATHER SERVICE SALT LAKE CITY UT
1000 PM MDT SAT MAY 02 2015

UTZ001>011-023>025-030500-

NORTHERN UTAH

CITY           SKY/WX    TMP DP  RH WIND       PRES   REMARKS
BRIGHAM CITY   CLOUDY    67  34  29 E6        29.86S
HILL AFB       CLOUDY    66  40  38 NE6       29.88R
LOGAN          CLEAR     56  44  64 SE3       29.87R
OGDEN          CLOUDY    66  40  38 N18       29.86R
PROVO AIRPORT  MOCLDY    70  36  28 N15       29.86R
SALT LAKE CITY MOCLDY    66  43  43 W3        29.87R
VERNAL         MOCLDY    58  34  40 NW7       29.93R
WENDOVER       CLOUDY    70  32  24 N13       29.85R
HEBER CITY     CLOUDY    63  30  29 S3        29.93R
WEST JORDAN    CLEAR     64  39  39 W8        29.90R

$$

UTZ012>022-026-027-030500-

SOUTHERN/CENTRAL UTAH

CITY           SKY/WX    TMP DP  RH WIND       PRES   REMARKS
BLANDING       MOCLDY    60  20  21 CALM      30.06R
BRYCE CANYON   PTCLDY    44  22  41 CALM      30.10R
CEDAR CITY     PTCLDY    62  24  23 S7        29.96R
DELTA          PTCLDY    63  28  26 S9        29.86R
HANKSVILLE     PTCLDY    70  21  16 SW8       29.88R
MILFORD        CLEAR     57  26  30 S8        29.90R
MOAB/CYNLANDS  CLEAR     69  22  16 W8        29.85R
PRICE          MOCLDY    60  21  22 N6        29.94R
ST GEORGE      MOCLDY    79  27  14 SW9       29.82R
KANAB          PTCLDY    63  32  31 S3        29.99S

$$

REGIONAL REPORTS     COLORADO/ARIZONA

CITY           SKY/WX    TMP DP  RH WIND       PRES   REMARKS
CRAIG, CO      PTCLDY    53  39  59 E8        30.01F
GRAND JUNCTION MOCLDY    68  32  26 NE21G26   29.88R
RIFLE          PTCLDY    57  35  43 SE7       29.99R
MONTROSE       PTCLDY    64  28  25 S13       29.97R
CORTEZ         CLEAR     61  32  33 SW8       30.02R
PAGE, AZ       MOCLDY    73  30  20 S6        29.91R
GRAND CANYON   MOCLDY    45  31  58 NE5       30.09R
KINGMAN        CLEAR     69  30  23 S9        29.87R
FLAGSTAFF      CLOUDY    58  29  33 CALM      30.12R

$$

REGIONAL REPORTS    NEVADA/IDAHO/WYOMING

CITY           SKY/WX    TMP DP  RH WIND       PRES   REMARKS
LAS VEGAS, NV  PTCLDY    84  28  13 S12       29.71R
ELY            MOCLDY    56  21  25 S9        29.95R
ELKO           CLOUDY    65  29  25 S6        29.88R
POCATELLO, ID  CLEAR     65  30  27 S10       29.85R
BURLEY         PTCLDY    63  37  38 SW13      29.83R
EVANSTON, WY   MOCLDY    52  32  46 N6        30.02R
ROCK SPRINGS   CLOUDY    49  40  71 S16G25    30.04F
KEMMERER       PTCLDY    46  32  57 NW10      30.03R

$$


USA.gov is the U.S. government's official web portal to all federal, state and local government web resources and services.